Weather History for Hat Yai, Thailand

Change the Weather History Date:

Saturday, April 20, 2013

  Actual Average Record
Temperature  
Mean Temperature 84 °F -  
Max Temperature 95 °F 89 °F 96 °F (2001)
Min Temperature 74 °F 75 °F 71 °F (2007)
Cooling Degree Days 20    
Growing Degree Days 34 (Base 50)    
Moisture  
Dew Point 72 °F    
Average Humidity 71    
Maximum Humidity 94    
Minimum Humidity 39    
Precipitation  
Precipitation 0.00 in - - ()
Sea Level Pressure  
Sea Level Pressure 29.77 in    
Wind  
Wind Speed 1 mph ()    
Max Wind Speed 8 mph    
Max Gust Speed -    
Visibility 6.0 miles    
Events      
Averages and records for this station are not official NWS values.
T = Trace of Precipitation, MM = Missing Value Source: Averaged Metar Reports

Daily Weather History Graph

Daily Weather History Graph

Search for Another Location

Airport:

Trip Planner

Search our weather history database for the weather conditions in past years. The results will help you decide how hot, cold, wet, or windy it might be!

Date:

Astronomy

Apr. 20, 2013 Rise Set
Actual Time 6:08 AM ICT 6:26 PM ICT
Civil Twilight 5:47 AM ICT 6:47 PM ICT
Nautical Twilight 5:22 AM ICT 7:12 PM ICT
Astronomical Twilight 4:57 AM ICT 7:37 PM ICT
Moon 1:43 PM ICT (4/20) 1:30 AM ICT (4/20)
Length of Visible Light 13h 00m
Length of Day
12h 18m
Waxing Gibbous, 66% of the Moon is Illuminated
Apr 20
Waxing Gibbous
Apr 26
Full
May 2
Last Quarter
May 10
New
May 18
First Quarter

Hourly Weather History & Observations

Time (ICT) Temp. Heat Index Dew Point Humidity Pressure Visibility Wind Dir Wind Speed Gust Speed Precip Events Conditions
12:00 AM 78.8 °F - 73.4 °F 83% 29.80 in 6.2 mi Calm Calm - N/A   Mostly Cloudy
12:30 AM 77.0 °F - 73.4 °F 89% 29.77 in 6.2 mi Calm Calm - N/A   Mostly Cloudy
1:00 AM 78 °F - 73 °F 79% 29.78 in 6 mi Calm Calm - -   Scattered Clouds
1:00 AM 77.0 °F - 73.4 °F 89% 29.77 in 6.2 mi Calm Calm - N/A   Mostly Cloudy
1:30 AM 77.0 °F - 71.6 °F 83% 29.74 in 6.2 mi Calm Calm - N/A   Mostly Cloudy
2:00 AM 77.0 °F - 71.6 °F 83% 29.74 in 6.2 mi Calm Calm - N/A   Mostly Cloudy
2:30 AM 75.2 °F - 71.6 °F 89% 29.74 in 6.2 mi Calm Calm - N/A   Mostly Cloudy
3:00 AM 75.2 °F - 71.6 °F 89% 29.74 in 6.2 mi Calm Calm - N/A   Mostly Cloudy
3:30 AM 75.2 °F - 73.4 °F 94% 29.74 in 6.2 mi Calm Calm - N/A   Mostly Cloudy
4:00 AM 75.2 °F - 71.6 °F 89% 29.74 in 5.6 mi SSE 3.5 mph - N/A   Mostly Cloudy
4:30 AM 75.2 °F - 73.4 °F 94% 29.74 in 5.6 mi Calm Calm - N/A   Mostly Cloudy
5:00 AM 75.2 °F - 71.6 °F 89% 29.74 in 5.0 mi Calm Calm - N/A   Mostly Cloudy
5:30 AM 75.2 °F - 71.6 °F 89% 29.74 in 5.0 mi Calm Calm - N/A   Mostly Cloudy
6:00 AM 75.2 °F - 71.6 °F 89% 29.77 in 5.6 mi Calm Calm - N/A   Mostly Cloudy
6:30 AM 75.2 °F - 71.6 °F 89% 29.77 in 5.6 mi Calm Calm - N/A   Mostly Cloudy
7:00 AM 75 °F - 72 °F 89% 29.80 in 6 mi West 3.5 mph - -   Mist
7:00 AM 75.2 °F - 73.4 °F 94% 29.80 in 5.6 mi West 3.5 mph - N/A   Mostly Cloudy
7:30 AM 77.0 °F - 73.4 °F 89% 29.80 in 5.6 mi Calm Calm - N/A   Mostly Cloudy
8:00 AM 78.8 °F - 75.2 °F 89% 29.83 in 5.6 mi Calm Calm - N/A   Mostly Cloudy
8:30 AM 82.4 °F 89.5 °F 75.2 °F 79% 29.83 in 5.6 mi Calm Calm - N/A   Mostly Cloudy
9:00 AM 84.2 °F 92.3 °F 75.2 °F 74% 29.83 in 6.2 mi WSW 3.5 mph - N/A   Mostly Cloudy
9:30 AM 86.0 °F 93.4 °F 73.4 °F 66% 29.83 in 6.2 mi SW 4.6 mph - N/A   Mostly Cloudy
10:00 AM 86.0 °F 93.4 °F 73.4 °F 66% 29.83 in 6.2 mi West 5.8 mph - N/A   Mostly Cloudy
10:30 AM 87.8 °F 93.8 °F 71.6 °F 58% 29.83 in 6.2 mi Calm Calm - N/A   Scattered Clouds
11:00 AM 89.6 °F 96.2 °F 71.6 °F 55% 29.83 in 6.2 mi SSE 3.5 mph - N/A   Scattered Clouds
11:30 AM 91.4 °F 98.4 °F 71.6 °F 52% 29.80 in 6.2 mi Calm Calm - N/A   Scattered Clouds
12:00 PM 91.4 °F 98.4 °F 71.6 °F 52% 29.80 in 6.2 mi SSW 5.8 mph - N/A   Mostly Cloudy
12:30 PM 91.4 °F 98.4 °F 71.6 °F 52% 29.77 in 6.2 mi Calm Calm - N/A   Mostly Cloudy
1:00 PM 92 °F - 70 °F 39% 29.78 in 6 mi WSW 4.6 mph - -   Scattered Clouds
1:00 PM 93.2 °F 100.5 °F 71.6 °F 49% 29.77 in 6.2 mi WSW 8.1 mph - N/A   Mostly Cloudy
1:30 PM 93.2 °F 98.8 °F 69.8 °F 46% 29.77 in 6.2 mi SSE 5.8 mph - N/A   Mostly Cloudy
2:00 PM 93.2 °F 98.8 °F 69.8 °F 46% 29.74 in 6.2 mi South 4.6 mph - N/A   Mostly Cloudy
2:30 PM 93.2 °F 96.2 °F 66.2 °F 41% 29.71 in 6.2 mi SE 5.8 mph - N/A   Mostly Cloudy
3:00 PM 95.0 °F 101.3 °F 69.8 °F 44% 29.71 in 6.2 mi SSE 5.8 mph - N/A   Mostly Cloudy
3:30 PM 93.2 °F 96.2 °F 66.2 °F 41% 29.71 in 6.2 mi SSE 4.6 mph - N/A   Mostly Cloudy
4:00 PM 93.2 °F 97.7 °F 68.0 °F 44% 29.71 in 6.2 mi SW 4.6 mph - N/A   Mostly Cloudy
4:30 PM 93.2 °F 97.7 °F 68.0 °F 44% 29.71 in 6.2 mi South 3.5 mph - N/A   Mostly Cloudy
5:00 PM 91.4 °F 98.4 °F 71.6 °F 52% 29.71 in 6.2 mi Calm Calm - N/A   Mostly Cloudy
5:30 PM 89.6 °F 96.2 °F 71.6 °F 55% 29.71 in 6.2 mi SW 4.6 mph - N/A   Mostly Cloudy
6:00 PM 89.6 °F 98.2 °F 73.4 °F 59% 29.71 in 6.2 mi NW 3.5 mph - N/A   Mostly Cloudy
6:30 PM 87.8 °F 95.6 °F 73.4 °F 62% 29.74 in 6.2 mi Calm Calm - N/A   Mostly Cloudy
7:00 PM 86 °F - 73 °F 56% 29.75 in 6 mi South 3.5 mph - -   Scattered Clouds
7:00 PM 86.0 °F 93.4 °F 73.4 °F 66% 29.74 in 6.2 mi South 3.5 mph - N/A   Mostly Cloudy
7:30 PM 84.2 °F 90.9 °F 73.4 °F 70% 29.77 in 6.2 mi Calm Calm - N/A   Mostly Cloudy
8:00 PM 84.2 °F 92.3 °F 75.2 °F 74% 29.77 in 6.2 mi Calm Calm - N/A   Mostly Cloudy
8:30 PM 84.2 °F 92.3 °F 75.2 °F 74% 29.80 in 6.2 mi Calm Calm - N/A   Mostly Cloudy
9:00 PM 84.2 °F 92.3 °F 75.2 °F 74% 29.80 in 6.2 mi Calm Calm - N/A   Mostly Cloudy
9:30 PM 82.4 °F 89.5 °F 75.2 °F 79% 29.83 in 6.2 mi SE 3.5 mph - N/A   Mostly Cloudy
10:00 PM 82.4 °F 89.5 °F 75.2 °F 79% 29.83 in 6.2 mi Calm Calm - N/A   Mostly Cloudy
10:30 PM 80.6 °F 86.2 °F 75.2 °F 84% 29.83 in 6.2 mi Calm Calm - N/A   Mostly Cloudy
11:00 PM 80.6 °F 86.2 °F 75.2 °F 84% 29.83 in 6.2 mi Calm Calm - N/A   Mostly Cloudy
11:30 PM 80.6 °F 86.2 °F 75.2 °F 84% 29.83 in 6.2 mi SSE 3.5 mph - N/A   Mostly Cloudy